Content
SEND FEEDBACK

Daily
Averages
Monthly
Summary
French Polynesia

PAPEETE, FRENCH POLYNESIA


Home > Oceania > French Polynesia
Elevation: 7 feet     Latitude: 17 33S     Longitude: 149 36W

WEATHER
 
SELECT A DAY
Number of Records: 208,134;   Date Range: 6/30/96 - 7/23/14
 
SHARE

PRINT THIS DATA

[ ← Previous Day ]
WEATHER ALMANAC - FEBRUARY 24, 2013
[ Next Day → ]
[ °C ]   °F
Weather ElementAverageHighLow
Temperature81 °F86 °F (10:00 am)73.4 °F (5:30 am)
Dewpoint72.4 °F75.2 °F (1:00 pm)68 °F (11:00 pm)
Humidity74.4 %94 % (5:30 am)61 % (11:00 am)
Barometer29.88 in29.95 in (10:00 pm)29.80 in (3:00 am)
Wind Speed10.8 mph29.1 mph (11:00 am)
Wind Gust26.5 mph (5:00 am)
Weather ElementAverage
Visibility6.5 mi
Wind DirectionENE (57.1 °)

Weather ElementTotal
Precipitation---
Cooling Degree Days14.7 (Base 65)
Growing Degree Days29.7 (Base 50)
Averaged from 55 records on February 24, 2013
WEATHER CONDITIONS BREAKOUT
WIND DIRECTION BREAKOUT
WEATHER BY HOUR - FEBRUARY 24, 2013
[ °C ]   °F
Local TimeTemperatureDewpointHumidityBarometerVisibilityWind DirectionWind SpeedGust SpeedPrecipitationEventsConditions
12:30 AM78.8 °F71.6 °F78 %29.83 in6.2 miENE (70°)6.9 mphPartly Cloudy
1:00 AM78.8 °F71.6 °F78 %29.83 in6.2 miENE (70°)8.1 mphPartly Cloudy
1:30 AM78.8 °F69.8 °F74 %29.83 in6.2 miEast (80°)9.2 mphPartly Cloudy
2:00 AM79.0 °F71.0 °F70 %29.84 in5.0 miEast (80°)8.1 mphMostly Cloudy
2:00 AM78.8 °F71.6 °F78 %29.83 in5.0 miEast (80°)8.1 mphMostly Cloudy
2:30 AM78.8 °F71.6 °F78 %29.83 in2.5 miNE (50°)5.8 mphRainLight Rain Showers
3:00 AM77.0 °F71.6 °F83 %29.80 in6.2 miEast (80°)4.6 mphScattered Clouds
3:30 AM77.0 °F69.8 °F78 %29.83 in6.2 miEast (90°)5.8 mphPartly Cloudy
4:00 AM75.2 °F69.8 °F83 %29.83 in0.9 miENE (70°)17.3 mphRainHeavy Rain
4:30 AM75.2 °F71.6 °F89 %29.83 in6.2 miNE (50°)4.6 mphRainLight Rain
5:00 AM77.0 °F72.0 °F81 %29.86 in4.0 miENE (60°)11.5 mphRainHeavy Rain
5:00 AM77.0 °F71.6 °F83 %29.86 in0.9 miENE (60°)11.5 mph26.5 mphRainHeavy Rain
5:30 AM73.4 °F71.6 °F94 %29.86 in6.2 miSSE (150°)9.2 mphRainLight Rain
6:00 AM73.4 °F69.8 °F88 %29.86 in6.2 miEast (90°)4.6 mphRainLight Rain
6:30 AM75.2 °F71.6 °F89 %29.86 in6.2 miENE (60°)4.6 mphScattered Clouds
7:00 AM77.0 °F71.6 °F83 %29.86 in6.2 miNE (50°)8.1 mphScattered Clouds
7:30 AM78.8 °F71.6 °F78 %29.89 in6.2 miENE (60°)8.1 mphScattered Clouds
8:00 AM80.0 °F73.0 °F74 %29.92 in12.0 miENE (60°)10.4 mphPartly Cloudy
8:00 AM80.6 °F73.4 °F79 %29.92 in6.2 miENE (60°)10.4 mphScattered Clouds
8:30 AM82.4 °F73.4 °F74 %29.92 in6.2 miENE (60°)11.5 mphScattered Clouds
9:00 AM84.2 °F73.4 °F70 %29.92 in6.2 miNE (50°)11.5 mphScattered Clouds
9:30 AM84.2 °F73.4 °F70 %29.92 in6.2 miNE (40°)11.5 mphScattered Clouds
10:00 AM86.0 °F71.6 °F62 %29.92 in6.2 miNE (50°)12.7 mphScattered Clouds
10:30 AM86.0 °F73.4 °F66 %29.92 in6.2 miNE (40°)16.1 mphScattered Clouds
11:00 AM85.0 °F73.0 °F61 %29.94 in12.0 miNE (50°)29.1 mphScattered Clouds
11:00 AM86.0 °F73.4 °F66 %29.92 in6.2 miNE (50°)15.0 mphMostly Cloudy
11:30 AM86.0 °F73.4 °F66 %29.92 in6.2 miENE (60°)17.3 mphMostly Cloudy
12:00 PM86.0 °F73.4 °F66 %29.89 in6.2 miNE (50°)15.0 mphMostly Cloudy
12:30 PM86.0 °F73.4 °F66 %29.89 in6.2 miNE (50°)15.0 mphMostly Cloudy
1:00 PM86.0 °F75.2 °F70 %29.86 in6.2 miNE (50°)13.8 mphMostly Cloudy
1:30 PM86.0 °F75.2 °F70 %29.86 in6.2 miNE (50°)13.8 mphMostly Cloudy
2:00 PM85.0 °F75.0 °F65 %29.87 in12.0 miNE (50°)13.8 mphMostly Cloudy
2:00 PM84.2 °F75.2 °F74 %29.86 in6.2 miNE (50°)13.8 mphMostly Cloudy
2:30 PM86.0 °F75.2 °F70 %29.86 in6.2 miNE (50°)12.7 mphMostly Cloudy
3:00 PM86.0 °F73.4 °F66 %29.86 in6.2 miNE (40°)13.8 mphMostly Cloudy
3:30 PM84.2 °F75.2 °F74 %29.86 in6.2 miNE (40°)16.1 mphMostly Cloudy
4:00 PM84.2 °F73.4 °F70 %29.86 in6.2 miNNE (30°)16.1 mphMostly Cloudy
4:30 PM84.2 °F73.4 °F70 %29.86 in6.2 miNE (40°)15.0 mphMostly Cloudy
5:00 PM83.0 °F74.0 °F67 %29.87 in12.0 miNE (50°)26.8 mphScattered Clouds
5:00 PM84.2 °F73.4 °F70 %29.86 in6.2 miNE (50°)13.8 mphMostly Cloudy
5:30 PM82.4 °F73.4 °F74 %29.86 in6.2 miNE (50°)12.7 mphMostly Cloudy
6:00 PM82.4 °F73.4 °F74 %29.86 in6.2 miENE (60°)13.8 mphMostly Cloudy
6:30 PM80.6 °F73.4 °F79 %29.89 in6.2 miNE (50°)12.7 mphMostly Cloudy
7:00 PM80.6 °F73.4 °F79 %29.89 in6.2 miNE (50°)11.5 mphMostly Cloudy
7:30 PM80.6 °F73.4 °F79 %29.92 in6.2 miEast (90°)6.9 mphMostly Cloudy
8:00 PM80.0 °F73.0 °F73 %29.92 in12.0 miNE (50°)8.9 mphScattered Clouds
8:00 PM80.6 °F73.4 °F79 %29.92 in6.2 miNE (50°)4.6 mphScattered Clouds
8:30 PM78.8 °F73.4 °F83 %29.92 in6.2 miENE (60°)4.6 mphScattered Clouds
9:00 PM78.8 °F71.6 °F78 %29.92 in6.2 miVariable2.3 mphScattered Clouds
9:30 PM78.8 °F71.6 °F78 %29.92 in6.2 miNE (40°)4.6 mphScattered Clouds
10:00 PM78.8 °F69.8 °F74 %29.95 in6.2 miENE (60°)5.8 mphScattered Clouds
10:30 PM78.8 °F69.8 °F74 %29.95 in6.2 miNE (50°)5.8 mphScattered Clouds
11:00 PM79.0 °F68.0 °F61 %29.94 in12.0 miNE (50°)4.6 mphScattered Clouds
11:00 PM78.8 °F68.0 °F69 %29.92 in6.2 miNE (50°)4.6 mphScattered Clouds
11:30 PM78.8 °F68.0 °F69 %29.92 in6.2 miENE (60°)8.1 mphScattered Clouds
Hourly data recorded from NTAA, located miles away from Papeete, French Polynesia







STORIES FROM OUR PARTNERS